Back to catalog

STARLINK-3986

AliveCommunicationsVLEO
NORAD 52623·PAYLOAD·🇺🇸 United States

Launched May 14, 2022 from Cape Canaveral Space Force Station

Loading…

Next Passes (next 24 hours)

TLE

FreshSource: CelesTrak SupGP

Epoch: Sep 14, 2026, 20:54 UTC

1 52623C 22052AB  26257.87131944 -.00020308  00000+0 -58109-3 0  2575
2 52623  53.1579 128.5431 0001294  85.0555 137.8086 15.35405254    16

Track STARLINK-3986 in real time with AllMySat

Download on the App Store